Tracking 19903 objects as of 16-Oct-2019
HD Live streaming from Space Station
objects crossing your sky now

SL-6 R/B(2)

Track SL-6 R/B(2) now!


NORAD ID: 10155
Int'l Code: 1977-054D
Perigee: 389.6 km
Apogee: 32,861.5 km
Inclination: 62.9 °
Period: 578.4 minutes
Semi major axis: 22996 km
RCS: 7.637 m2 (large)
Launch date: June 24, 1977
Source: Commonwealth of Independent States (former USSR) (CIS)
Launch site: TYURATAM MISSILE AND SPACE COMPLEX (TTMTR)

Note: This is a ROCKET BODY
aabbcc
Your satellite tracking list
Your tracking list is empty




NASA's NSSDC Master Catalog

Two Line Element Set (TLE):
1 10155U 77054D   19288.02997958 -.00000148  00000-0  16302-3 0  9991
2 10155  62.8811 280.4781 7060177 283.2809  12.2968  2.48948139213631
Source of the keplerian elements: AFSPC